EHI
0 0 0 0 0 0 0 0 0 0 0 0 0 0 0 0 0 0 0 0 0 0 0 0 0 0 0 0 0 0 0 1 2 1 0 1 2 2 1 0 0 0 0 0
0 0 0 0 0 0 0 0 0 0 0 0 0 0 0 0 0 0 0 0 0 0 0 0 0 0 0 0 0 0 0 0 1 0 0 0 1 1 0 0 0 0 0 0
0 0 0 0 0 0 0 0 0 0 0 0 0 0 0 0 0 0 0 0 0 0 0 0 0 0 0 0 0 0 0 0 0 0 0 0 0 0 0 0 0 0 0 0
0 0 0 0 0 0 0 0 0 0 0 0 0 0 0 0 0 0 0 0 0 0 0 0 0 0 0 0 0 0 0 0 0 0 0 0 0 0 0 0 0 0 0 0
0 0 0 0 0 0 0 0 0 0 0 0 0 0 0 0 0 0 0 0 0 0 0 0 0 0 0 0 0 0 0 0 0 0 0 0 0 0 0 0 0 0 0 0
0 0 0 0 0 0 0 0 0 0 0 0 0 0 0 0 0 0 0 0 0 0 0 0 0 0 0 0 0 0 0 0 0 0 0 0 0 0 0 0 0 0 0 0
0 0 0 0 0 0 0 0 0 0 0 0 0 0 0 0 0 0 0 0 0 0 0 0 0 0 0 0 0 0 0 0 0 0 0 0 0 0 0 0 0 0 0 0
0 0 0 0 0 0 0 0 0 0 0 0 0 0 0 0 0 0 0 0 0 0 0 0 0 0 0 0 0 0 0 0 0 0 0 0 0 0 0 0 0 0 0 0
0 0 0 0 0 0 0 0 0 0 0 0 0 0 0 0 0 0 0 0 0 0 0 0 0 0 0 0 0 0 0 0 0 0 0 0 0 0 0 0 0 0 0 0
0 0 0 0 0 0 0 0 0 0 0 0 0 0 0 0 0 0 0 0 0 0 0 0 0 0 0 0 0 0 0 0 0 0 0 0 0 0 0 0 0 0 0 0
0 0 0 0 0 0 0 0 0 0 0 0 0 0 0 0 0 0 0 0 0 0 0 0 0 0 0 0 0 0 0 0 0 0 0 0 0 0 0 0 1 0 0 0
0 0 0 0 0 0 0 0 0 0 0 0 0 0 0 0 0 0 0 0 0 0 0 0 0 0 0 0 0 0 0 0 0 0 0 0 0 0 0 0 0 0 0 0
0 0 0 0 0 0 0 0 0 0 0 0 0 0 0 0 0 0 0 0 0 0 0 0 0 0 0 0 0 0 0 0 0 0 0 0 0 0 0 0 0 0 0 0
0 0 0 0 0 0 0 0 0 0 0 0 0 0 0 0 0 0 0 0 0 0 0 0 0 0 0 0 0 0 0 0 0 0 0 0 0 0 0 0 0 0 0 0
0 0 0 0 0 0 0 0 0 0 0 0 0 0 0 0 0 0 0 0 0 0 0 0 0 0 0 0 0 0 0 0 0 0 0 0 0 0 0 0 0 0 0 0
0 0 0 0 0 0 0 0 0 0 0 0 0 0 0 0 0 0 0 0 0 0 0 0 0 0 0 0 0 0 0 0 0 0 0 0 0 0 0 0 0 0 0 0
0 0 0 0 0 0 0 0 0 0 0 0 0 0 0 0 0 0 0 0 0 0 0 0 0 0 0 0 0 0 0 0 0 0 0 0 0 0 0 0 0 0 0 0
0 0 0 0 0 0 0 0 0 0 0 0 0 0 0 0 0 0 0 0 0 0 0 0 0 0 0 0 0 0 0 0 0 0 0 0 1 0 0 0 0 0 0 0
0 0 0 0 0 0 0 0 0 0 0 0 0 0 0 0 0 0 0 0 0 0 0 0 0 0 0 0 0 0 0 0 0 0 0 0 0 0 0 0 0 0 0 0
0 0 0 0 0 0 0 0 0 0 0 0 0 0 0 0 0 0 0 0 0 0 0 0 0 0 0 0 0 0 0 0 0 0 0 0 0 0 0 0 0 0 0 0
0 0 0 0 0 0 0 0 0 0 0 0 0 0 0 0 0 0 0 0 0 0 0 0 0 0 0 0 0 0 0 0 0 0 0 0 0 0 0 0 0 0 0 0
0 0 0 0 0 0 0 0 0 0 0 0 0 0 0 0 0 0 0 0 0 0 0 0 0 0 0 0 0 0 0 0 0 0 0 0 0 0 0 0 0 0 0 0
0 0 0 0 0 0 0 0 0 0 0 0 0 0 0 0 0 0 0 0 0 0 0 0 0 0 0 0 0 0 0 0 0 0 0 0 0 0 0 0 0 0 0 0
0 0 0 0 0 0 0 0 0 0 0 0 0 0 0 0 0 0 0 0 0 0 0 0 0 0 0 0 0 0 0 0 0 0 0 0 0 0 0 0 0 0 0 0
0 0 0 0 0 0 0 0 0 0 0 0 0 0 0 0 0 0 0 0 0 0 0 0 0 0 0 0 0 0 0 0 0 0 0 0 0 0 0 0 0 0 0 0
0 0 0 0 0 0 0 0 0 0 0 0 0 0 0 0 0 0 0 0 0 0 0 0 0 0 0 0 0 0 0 0 0 0 0 0 0 0 0 0 0 0 0 0
Wind_Speed
0 0 1 3 4 5 5 6 8 7 5 5 6 7 6 4 3 3 3 3 2 2 1 2 1 1 1 1 1 1 1 1 2 1 1 1 1 1 1 1 2 2 1 1
0 2 4 5 6 6 6 6 8 7 5 6 6 8 6 5 5 4 4 3 3 2 1 1 2 1 1 0 0 1 1 1 1 0 0 1 2 1 1 1 1 1 1 1
1 3 4 4 5 6 6 6 6 7 8 7 5 6 6 4 3 3 3 3 2 2 2 2 2 1 0 1 0 1 1 1 1 1 2 2 2 1 1 1 1 1 0 0
2 3 4 4 5 5 6 5 8 8 5 4 3 4 5 5 4 4 3 2 2 2 2 1 1 2 1 0 0 1 2 1 1 2 2 2 2 2 1 1 1 0 0 0
2 3 3 4 5 5 6 7 8 8 5 4 4 3 4 5 4 4 3 2 2 2 2 2 2 2 1 1 1 1 1 2 2 1 2 2 1 1 1 1 1 1 0 0
4 2 2 4 5 5 6 6 6 4 2 4 4 3 3 2 3 3 1 1 1 1 2 2 2 2 1 1 2 2 2 2 2 2 2 1 1 1 2 1 1 1 0 0
2 1 1 2 4 3 3 2 2 1 2 3 3 3 3 1 1 1 2 0 1 2 2 2 2 2 2 1 2 2 2 1 1 1 2 1 1 1 2 2 1 1 1 1
3 2 1 2 2 3 2 1 1 2 3 3 2 3 2 2 2 2 2 2 3 2 2 2 1 1 1 2 2 2 2 1 1 1 1 1 1 0 1 1 1 1 1 1
3 3 1 2 2 2 2 1 2 2 3 3 4 2 1 2 2 2 3 3 3 2 2 2 2 2 1 1 1 1 1 1 1 1 1 1 1 0 0 1 1 1 1 1
2 4 3 2 1 1 2 2 1 1 2 3 3 2 1 0 0 1 2 2 2 2 2 3 2 3 2 2 1 2 1 1 1 1 1 1 1 0 1 1 0 1 1 1
2 2 3 1 0 1 1 1 1 2 2 2 3 2 3 2 1 1 2 2 2 2 3 2 3 3 3 2 1 2 1 1 1 1 1 1 1 0 1 1 1 1 1 2
1 1 3 2 0 1 1 1 1 1 3 2 3 3 4 4 4 3 3 3 4 4 3 2 2 3 3 3 2 2 1 1 1 1 0 1 1 0 1 1 1 1 1 2
1 1 3 2 1 1 1 2 2 2 2 3 3 4 3 5 5 5 4 4 4 3 4 3 3 3 3 3 3 2 2 1 1 1 1 1 1 1 1 1 1 1 1 1
1 1 3 4 4 2 3 4 3 2 2 4 5 5 5 5 5 4 4 4 4 3 4 4 3 3 3 3 3 2 2 1 1 1 1 1 1 1 1 1 1 1 1 1
1 2 4 6 7 5 5 6 5 6 6 5 6 5 5 4 4 3 3 4 4 4 4 4 4 3 3 3 3 3 2 2 1 1 1 1 1 1 1 2 2 2 2 2
1 2 3 5 5 5 7 7 7 7 7 8 8 9 5 4 3 3 3 3 3 4 4 4 4 3 3 3 3 2 2 2 2 2 1 1 1 1 2 2 2 2 2 2
1 1 2 4 2 4 6 6 6 5 4 5 8 8 4 3 3 3 3 3 3 3 4 4 4 3 3 3 3 2 2 2 2 2 2 2 1 2 2 2 2 2 2 2
2 1 2 3 3 5 5 0 2 4 6 6 6 5 5 4 4 3 2 2 3 3 3 3 3 3 2 2 2 2 2 2 2 2 2 2 2 2 2 2 2 2 1 2
2 2 2 2 3 7 3 1 1 2 5 4 5 6 4 4 4 3 2 2 2 2 2 2 2 2 1 2 2 1 1 2 2 2 2 2 2 2 2 2 2 1 1 1
0 2 2 3 3 6 3 1 1 1 5 2 2 4 4 3 3 4 4 3 3 3 2 2 2 1 1 1 2 2 1 2 2 2 2 2 2 2 2 2 2 1 1 1
3 3 4 5 5 7 2 1 2 2 5 3 3 3 3 2 4 3 4 4 3 3 3 2 2 1 1 2 2 2 2 2 1 2 2 2 2 2 1 1 1 1 1 1
7 5 6 4 5 8 2 3 4 5 2 3 4 3 2 3 3 3 3 3 3 3 3 3 2 1 1 2 2 1 1 1 1 2 2 2 1 1 1 1 1 1 1 2
6 7 4 7 7 3 4 3 3 2 2 3 3 3 3 3 3 4 3 3 2 3 3 2 2 1 2 2 1 1 1 1 1 1 1 1 1 1 1 1 1 1 1 1
5 4 3 5 6 5 4 4 3 3 3 2 2 2 2 3 4 4 3 3 2 2 2 2 2 1 1 1 1 0 1 1 1 1 1 1 1 1 1 1 1 1 1 1
4 5 4 6 6 5 4 5 4 2 2 2 3 2 2 2 3 3 3 3 2 2 2 1 1 1 1 1 1 1 0 1 1 1 1 1 1 1 1 1 1 0 0 1
5 6 6 7 5 4 3 2 2 2 3 3 2 2 2 2 3 3 3 2 2 2 2 1 1 1 1 1 1 1 0 1 1 1 0 0 0 0 1 1 1 3 1 2
Wind_Direction
74 66 280 278 262 267 272 272 271 275 277 274 253 258 253 243 235 243 245 220 215 211 185 155 112 98 92 77 85 89 84 74 82 112 123 128 115 110 94 86 90 68 77 103
333 267 281 294 295 280 273 280 282 286 287 275 258 255 243 233 227 221 225 223 220 208 187 149 124 110 114 86 87 153 122 135 124 124 137 157 139 132 126 86 79 73 65 82
292 297 307 301 307 298 279 277 280 283 292 262 255 252 223 216 212 237 235 217 200 197 203 165 143 147 122 110 143 207 179 178 145 107 84 92 94 88 76 63 42 27 12 2
291 305 301 292 296 300 286 290 288 283 279 268 230 262 228 205 210 229 231 228 198 203 184 149 150 138 145 138 159 177 185 136 117 120 125 124 142 148 169 175 176 181 244 227
307 329 310 294 296 303 286 299 283 274 268 278 241 234 245 193 219 233 224 226 226 200 158 148 162 143 126 143 151 145 139 104 89 89 130 137 125 118 120 111 125 108 346 336
269 282 309 298 297 289 295 296 281 255 244 257 234 220 249 203 231 221 219 269 273 147 130 125 134 117 90 84 105 112 116 108 93 69 77 107 126 126 138 132 146 121 119 156
294 257 280 303 305 302 317 336 335 323 248 244 204 220 235 211 37 142 175 160 38 78 103 106 106 124 111 104 93 92 92 88 94 83 57 74 135 160 173 172 172 153 156 195
316 296 8 349 321 307 289 287 286 266 261 291 233 228 210 67 58 70 78 69 55 55 78 87 100 105 121 118 103 91 81 75 63 68 61 51 43 103 174 182 168 181 195 190
329 296 333 326 335 335 309 271 271 292 287 271 244 220 154 49 34 51 53 42 29 27 39 54 49 62 82 106 113 94 71 55 50 49 43 57 53 53 152 161 156 167 148 150
311 291 292 301 282 295 292 305 329 301 300 283 263 243 288 301 318 14 32 29 7 20 29 38 30 29 33 39 67 92 75 56 56 56 27 356 64 64 87 105 201 156 147 156
316 291 290 283 192 321 346 347 306 277 275 286 284 285 5 9 25 34 33 27 14 27 30 26 20 22 23 22 62 92 82 54 42 37 31 2 43 21 125 144 149 147 150 141
340 293 282 271 85 5 315 306 282 264 286 267 276 279 354 21 35 34 24 26 25 28 20 16 22 28 20 17 21 62 62 46 27 21 23 11 33 42 141 131 119 129 141 138
353 319 307 317 339 345 323 310 299 286 282 267 257 264 5 19 22 22 21 24 24 19 14 11 19 26 17 13 9 24 41 42 32 46 57 35 14 47 122 113 106 116 126 119
348 241 223 241 271 274 271 274 267 237 240 270 256 273 315 344 356 2 7 6 4 10 11 8 8 10 13 9 8 8 21 32 27 49 64 45 19 38 60 91 93 104 112 111
12 260 259 268 276 273 260 258 240 229 238 248 279 284 293 314 322 334 344 346 352 357 1 357 356 356 1 3 4 8 20 32 34 55 55 41 35 43 55 82 79 87 85 76
9 281 301 280 251 254 267 263 244 240 247 257 277 283 288 304 326 336 340 337 332 336 341 342 346 354 357 354 354 8 25 31 45 53 42 32 43 50 54 73 77 83 82 79
207 231 290 279 310 313 271 243 225 229 232 232 249 264 306 310 311 316 320 317 312 322 330 331 334 341 344 345 350 9 23 35 49 50 38 30 38 58 57 69 73 76 83 93
176 197 249 285 327 255 241 173 192 223 247 243 259 285 303 299 301 314 311 311 321 324 320 319 325 336 344 348 357 21 33 51 50 48 43 31 36 46 50 69 74 64 70 86
191 189 245 259 268 271 252 228 164 224 276 254 256 281 302 320 326 331 353 354 328 322 318 319 318 326 344 357 20 37 52 55 46 41 37 26 37 42 41 53 64 63 73 74
139 178 223 239 250 257 255 111 86 79 279 284 268 283 300 329 303 289 336 341 338 345 345 341 337 1 23 43 49 47 60 64 39 24 31 30 34 40 34 35 56 57 75 80
176 202 218 232 243 264 259 159 117 186 258 316 313 296 307 286 267 300 334 341 349 351 348 356 358 47 63 71 61 48 60 54 27 32 41 42 40 41 32 33 54 62 69 78
184 190 201 204 225 250 157 138 190 228 296 321 320 319 312 299 308 325 330 335 347 348 350 358 10 30 45 68 75 56 50 31 34 45 47 47 40 30 32 61 63 66 88 96
203 201 197 201 218 231 175 203 228 273 292 308 317 324 316 310 312 318 319 324 334 338 341 354 0 19 39 46 63 54 17 45 48 61 54 43 34 40 45 87 104 102 108 119
218 196 222 252 257 252 233 241 258 265 271 296 313 318 316 306 307 313 314 319 327 333 337 348 359 19 15 20 17 358 344 65 76 71 66 52 45 41 31 74 85 97 138 140
213 180 213 247 267 278 250 235 249 271 296 306 311 312 297 294 298 303 308 310 315 321 325 334 343 345 333 351 346 321 342 77 79 79 85 59 55 69 39 44 39 49 155 168
200 195 201 232 230 217 253 239 224 243 267 279 292 307 311 289 285 296 300 303 306 311 316 327 334 322 311 331 325 332 13 93 101 71 61 60 70 60 72 69 38 32 28 28